Holland, MI

5:53 PM EST on January 19, 2017 (GMT -0500)
Tulip City

Weather History for KBIV - December, 2012

Change the Weather History Date:

Saturday, December 15, 2012

  Actual Average Record
Temperature  
Mean Temperature 42 °F 31 °F  
Max Temperature 51 °F 36 °F 61 °F (1971)
Min Temperature 33 °F 26 °F 1 °F (1968)
Degree Days  
Heating Degree Days 23 34  
Month to date heating degree days 355 474  
Since 1 July heating degree days 1596 1697  
Cooling Degree Days 0 0  
Month to date cooling degree days 0 0  
Year to date cooling degree days 1067 693  
Moisture  
Dew Point 37 °F    
Average Humidity 78    
Maximum Humidity 93    
Minimum Humidity 62    
Precipitation  
Precipitation 0.42 in 0.06 in 1.77 in (1971)
Month to date precipitation 1.35 1.34  
Year to date precipitation 32.19 35.50  
Sea Level Pressure  
Sea Level Pressure 29.80 in    
Wind  
Wind Speed 9 mph (SE)    
Max Wind Speed 20 mph    
Max Gust Speed 24 mph    
Visibility 7 miles    
Events Rain    
T = Trace of Precipitation, MM = Missing Value Source: NWS Daily Summary

Daily Weather History Graph

Daily Weather History Graph

Search for Another Location

Airport or City:

Trip Planner

Search our weather history database for the weather conditions in past years. The results will help you decide how hot, cold, wet, or windy it might be!

Date:

Astronomy

Dec. 15, 2012 Rise Set
Actual Time 8:08 AM EST 5:11 PM EST
Civil Twilight 7:36 AM EST 5:43 PM EST
Nautical Twilight 7:00 AM EST 6:19 PM EST
Astronomical Twilight 6:25 AM EST 6:53 PM EST
Moon 9:58 AM EST (12/15) 8:17 PM EST (12/15)
Length of Visible Light 10h 07m
Length of Day
9h 03m
Waxing Crescent, 8% of the Moon is Illuminated
Dec 15
Waxing Crescent
Dec 20
First Quarter
Dec 28
Full
Jan 4
Last Quarter
Jan 11
New

Hourly Weather History & Observations

Time (EST) Temp. Windchill Dew Point Humidity Pressure Visibility Wind Dir Wind Speed Gust Speed Precip Events Conditions
12:53 AM 34.0 °F 28.8 °F 28.9 °F 82% 30.11 in 9.0 mi East 5.8 mph - N/A   Clear
1:53 AM 35.1 °F 31.0 °F 28.9 °F 78% 30.10 in 10.0 mi East 4.6 mph - N/A   Clear
2:53 AM 36.0 °F 32.1 °F 28.9 °F 76% 30.09 in 10.0 mi ESE 4.6 mph - N/A   Clear
3:53 AM 35.1 °F 31.0 °F 28.9 °F 78% 30.08 in 10.0 mi East 4.6 mph - N/A   Partly Cloudy
4:53 AM 35.1 °F 29.3 °F 28.9 °F 78% 30.07 in 9.0 mi East 6.9 mph - N/A   Clear
5:53 AM 37.0 °F 30.4 °F 30.0 °F 76% 30.06 in 10.0 mi ESE 9.2 mph - N/A   Partly Cloudy
6:53 AM 37.0 °F 33.3 °F 30.0 °F 76% 30.05 in 10.0 mi ESE 4.6 mph - N/A   Scattered Clouds
7:53 AM 39.9 °F 33.9 °F 30.0 °F 68% 30.01 in 10.0 mi ESE 9.2 mph - N/A   Mostly Cloudy
9:53 AM 43.0 °F 38.2 °F 30.0 °F 60% 29.95 in 10.0 mi ESE 8.1 mph - N/A   Mostly Cloudy
10:53 AM 43.0 °F 36.8 °F 30.9 °F 62% 29.92 in 10.0 mi ESE 11.5 mph - 0.00 in Rain Light Rain
11:53 AM 44.1 °F 37.4 °F 33.1 °F 65% 29.85 in 10.0 mi ESE 13.8 mph - 0.00 in Rain Light Rain
12:53 PM 43.0 °F 37.7 °F 36.0 °F 76% 29.84 in 10.0 mi East 9.2 mph - 0.03 in   Overcast
1:53 PM 43.0 °F 35.7 °F 36.0 °F 76% 29.79 in 5.0 mi ESE 15.0 mph - 0.04 in Rain Light Rain
2:53 PM 43.0 °F 36.0 °F 37.9 °F 82% 29.75 in 4.0 mi ESE 13.8 mph 20.7 mph 0.04 in Rain Light Rain
3:03 PM 42.8 °F 35.4 °F 39.2 °F 87% 29.72 in 1.8 mi ESE 15.0 mph 21.9 mph 0.01 in Rain Light Rain
3:15 PM 42.8 °F 36.2 °F 39.2 °F 87% 29.71 in 2.0 mi ESE 12.7 mph 23.0 mph 0.01 in Rain Light Rain
3:40 PM 44.6 °F 38.8 °F 39.2 °F 81% 29.70 in 4.0 mi SE 11.5 mph 19.6 mph 0.01 in   Overcast
3:53 PM 44.1 °F 37.1 °F 39.9 °F 85% 29.72 in 8.0 mi SE 15.0 mph - 0.01 in   Overcast
4:25 PM 44.6 °F 38.1 °F 39.2 °F 81% 29.68 in 2.0 mi SE 13.8 mph - 0.01 in Rain Light Rain
4:42 PM 44.6 °F 38.1 °F 39.2 °F 81% 29.67 in 3.0 mi SE 13.8 mph - 0.01 in   Overcast
4:53 PM 45.0 °F 38.5 °F 41.0 °F 86% 29.68 in 5.0 mi SE 13.8 mph - 0.01 in   Overcast
5:00 PM 44.6 °F 37.8 °F 41.0 °F 87% 29.67 in 6.0 mi SE 15.0 mph - N/A   Overcast
5:14 PM 44.6 °F 38.4 °F 41.0 °F 87% 29.67 in 6.0 mi SE 12.7 mph - 0.00 in Rain Light Rain
5:27 PM 44.6 °F 38.4 °F 41.0 °F 87% 29.66 in 5.0 mi SE 12.7 mph - 0.02 in Rain Light Rain
5:53 PM 46.0 °F 41.4 °F 42.1 °F 86% 29.67 in 4.0 mi SE 9.2 mph - 0.08 in Rain Light Rain
6:53 PM 46.0 °F 40.6 °F 42.1 °F 86% 29.65 in 3.0 mi SE 11.5 mph - 0.05 in Rain Light Rain
7:53 PM 46.9 °F - 43.0 °F 86% 29.63 in 3.0 mi SE 11.5 mph - 0.07 in Rain Light Rain
8:53 PM 46.9 °F - 44.1 °F 90% 29.62 in 3.0 mi SSE 10.4 mph - 0.06 in Rain Rain
9:53 PM 48.9 °F - 45.0 °F 86% 29.61 in 9.0 mi South 12.7 mph - 0.03 in   Overcast
10:53 PM 51.1 °F - 46.0 °F 83% 29.61 in 10.0 mi SW 18.4 mph 24.2 mph N/A   Overcast
11:53 PM 50.0 °F - 46.9 °F 89% 29.60 in 8.0 mi SW 13.8 mph - N/A   Overcast